Погода в Игарке

Погода в Игарке : погода сейчас, прогноз погоды и архив. Всё, что Вы хотите узнать о погоде в Игарке!

Поиск расширенной информации на нашем сайте:

Другие новости

Новости СМИ2

Главная страница сайта

Новости сайта

03.07.2017

Напоминаем, что на нашем специализированном сайте Метеоцентр.Азия вы можете получить высокодетализированные автоматические прогнозы погоды по пунктам России, СНГ и мира в авиационном формате (включающие направление и скорость ветра, видимость, явления погоды, количество и форму облачности, нижнюю и верхнюю границу облачности).

Рекомендуем: Доставка канапе и фуршетных блюд по Москве catering.su.

Погода в Игарке - сегодня

Время (UTC), дата Ветер
(°,м/с) 
Видим.   Явления Облачность Т
(°С)
Тd
(°С)
f(%) Тe
(°С)
Pmin
(гПа)
dP
(гПа)
Po
(мм)
O2
(г/м3)
Тmin Tmax R s Состояние
почвы
03 18.11.17 130 (ЮВ) 20000 м  {снег}  9/1 1000 м средняя 
[Sc|Ac trans]
-19.9 -23.2 75 -23  1023.2  -0.2  764  334  -20.2         
06 18.11.17 110 (В) 20000 м  {снег}  9/3 1000 м средняя, верхняя 
[Sc|Ac trans|Ci fib]
-19.2 -22.5 75 -22  1022.9  -0.3  764  333           
09 18.11.17 060 (СВ) 20000 м    8/0 средняя, верхняя 
[Ac trans|Ci fib]
-23.4 -26.6 75 -24  1022.7  -0.2  764  339           
12 18.11.17 040 (СВ) 10 км    8/0 средняя, верхняя 
[Ac trans|Ci fib]
-25.8 -28.3 79 -26  1022.3  -0.4  764  342    -18.8  0.0     
15 18.11.17 030 (СВ) 10 км    9/6 2000 м средняя, верхняя 
[Ac trans|Ci fib]
-23.8 -26.3 80 -24  1021.1  -1.2  763  339           
18 18.11.17 060 (СВ) 10 км    9/8 2000 м средняя, верхняя 
[Ac trans|Ci fib]
-23.6 -26.2 79 -24  1019.7  -1.4  762  338           
21 18.11.17 020 (С) 10 км    9/8 2000 м средняя, верхняя 
[Ac trans|Ci fib]
-22.8 -25.3 80 -23  1018.2  -1.5  761  336           
00 19.11.17 040 (СВ) 10 км    8/0 средняя 
[Ac trans]
-23.5 -26 80 -24  1017  -1.2  760  337  -26.3      42  равномерный
сухой снег
100% 
03 19.11.17 360 (С) 20000 м    8/0 средняя, верхняя 
[Ac trans|Ci fib]
-24.6 -27.2 79 -25  1015.9  -1.1  759  338           
06 19.11.17 360 (С) 20000 м    8/0 средняя, верхняя 
[Ac trans|Ci fib]
-24 -26.5 80 -24  1015.1  -0.8  758  337           
09 19.11.17 330 (СЗ) 20000 м    8/0 средняя, верхняя 
[Ac trans|Ci fib]
-24.9 -27.4 80 -25  1015.3  0.2  759  338           
12 19.11.17 320 (СЗ) 10 км    6/0 средняя, верхняя 
[Ac trans|Ci fib]
-27.3 -29.8 79 -31  1015.5  0.2  759  342    -23.4       
15 19.11.17 320 (СЗ) 10 км    4/0 верхняя 
[Ci fib]
-29.6 -32 80 -33  1016.2  0.6  759  345           
18 19.11.17 320 (СЗ) 10 км    3/0 верхняя 
[Ci fib]
-30.5 -33 79 -34  1016.6  0.4  759  346           
21 19.11.17 тихо ()   10 км    1/0 верхняя 
[Ci fib]
-31.7 -34.1 79 -32  1017.7  1.1  760  349           
00 20.11.17 320 (СЗ) 10 км    ясно 
-36.6 -39.4 75 -41  1019.1  1.3  761  356  -36.7      42  равномерный
сухой снег
100% 
03 20.11.17 тихо ()   20000 м    3/0 верхняя 
[Ci fib]
-36.3 -39 76 -36  1020.2  1.1  762  356           
06 20.11.17 тихо ()   10 км  ледяные иглы  3/0 верхняя 
[Ci fib]
-34.6 -38.4 68 -35  1022  1.8  763  354           
09 20.11.17 020 (С) 20000 м    3/0 верхняя 
[Ci fib]
-35.3 -39 69 -36  1023.8  1.8  765  356           
12 20.11.17 040 (СВ) 10 км    1/0 верхняя 
[Ci fib]
-36.1 -39.7 69 -37  1025  1.2  766  358    -33.7  0.0     
15 20.11.17 030 (СВ) 10 км    1/0 
-36.5 -40.1 69 -38  1026  766  359           
18 20.11.17 010 (С) 10 км    ясно 
-36.2 -39.7 70 -37  1026.9  0.9  767  358           
21 20.11.17 030 (СВ) 10 км    ясно 
-35.5 -39 70 -37  1027.8  0.9  768  358           
00 21.11.17 340 (С) 10 км    ясно 
-36.5 -40.1 69 -41  1028.6  0.8  768  359  -36.8      42  равномерный
сухой снег
100% 
03 21.11.17 тихо ()   20000 м    ясно 
-35.5 -38.4 75 -36  1028.9  0.3  769  358           
Время (UTC), дата Ветер
(°,м/с) 
Видим.   Явления Облачность Т
(°С)
Тd
(°С)
f(%) Тe
(°С)
Pmin
(гПа)
dP
(гПа)
Po
(мм)
O2
(г/м3)
Тmin Tmax R s Состояние
почвы

Для получения пояснительной информации подведите курсор к названию столбца.

ПОГОДА в Игарке - архив

Всё, что Вы хотите узнать о погоде в Игарке - удобно и подробно!

Выберите нужную дату (начиная с 1 января 2015* года) и нажмите кнопку "Найти".
Будут отображены архивные сводки погоды по пункту Игарка, начиная с указанной даты.


Отображать данные в формате CSV (для использования в таблицах Excel)


Внимание! Наш архив погоды предназначен исключительно для личного некоммерческого использования в познавательных целях. Если Вам необходимы официальные справки о состоянии погоды (для производственных, юридических, коммерческих и т.п. целей), обращайтесь в органы Росгидромета.

*Примечание: данная дата относится к архиву по метеостанциям СССР (Россия, СНГ, Балтия).
Архив по метеостанциям Зарубежной Европы и Азии (кроме Китая) хранится 10 дней, по другим регионам земного шара (Китай, Африка, Америка, Австралия, Океания) - 1 день.

Игарка - район местоположения метеостанции


Название, широта, долгота, высота метеостанции:
Игарка 67.5°ш. 86.4°д. 25 м над ур. моря [Российская Федерация]

Дополнительная информация

В oтличие oт бoльшинства пoгoдных сайтoв мы публикуем пoдрoбную метеoинфoрмацию в детальнoм прoфессиoнальнoм фoрмате.

Характеристики температуры и влажнoсти вoздуха измеряются на высoте 2 м в тени вдали oт зданий и деревьев.
Скoрoсть ветра измеряется на высoте 10 м (на урoвне рoста челoвека скoрoсть ветра ниже в 1.5-2 раза). Если метеoстанция нахoдится в гoрoде или в лесу, тo скoрoсть ветра занижена на 2-4 м/с пo сравнению с oткрытым местoм. Скoрoсть ветра над акватoриями крупных рек и oзёр, а также на вершинах хoлмoв на 2-5 м/с выше, чем в oбычных услoвиях.
Атмoсфернoе давление в разных тoчках местнoсти мoжет значительнo oтличаться oт давления на метеoстанции, в зависимoсти oт услoвий рельефа (при пoдъёме на 10 м давление пoнижается примернo на 1 мм рт.ст.).